User: anonymous   Login
Location: Asni�res
(49.1337°N, 2.3555°E)
Time: 13:11:25
(UTC+00:00)
Language:

Cosmos 1626 Rocket - Orbit

View from above orbital plane
View from above orbital plane
View from above satellite
View from above satellite

Ground track
Ground track

The orbit data is extracted from the following two-line orbital elements,

1 15495U 85009B   22273.18247556  .00000424  00000-0  47686-4 0  9995
2 15495  82.5271 178.3517 0021606  79.3570 281.0077 14.84087883 36329
Epoch (UTC): 30 September 2022 04:22:45
Eccentricity: 0.0021606
inclination: 82.5271°
perigee height: 601 km
apogee height: 631 km
right ascension of ascending node: 178.3517°
argument of perigee: 79.3570°
revolutions per day: 14.84087883
mean anomaly at epoch: 281.0077°
orbit number at epoch: 3632

The dashed part of the orbit path shows where the satellite is in the earth's shadow,  

DLR